GSAT0213 (GALILEO 17)

Last updated on Sat Oct 18 2025 00:02:37 GMT+0000 (Coordinated Universal Time)

1 41861U 16069C 25288.94826400 .00000052 00000+0 00000+0 0 9995 2 41861 55.3474 107.8529 0001533 302.0294 58.0040 1.70474612 55351
UTC large
Height (km)
Speed (km/s)
/
Latitude / Longitude
Inclination (degrees)
Orbital Period (minutes)
Azimuth
Elevation
Range (km)
Doppler Factor

Next 0 passes for location: London (51.5072 / 0.1276)

Sorry there are no passes over London.